When you browse on this site, cookies collect data to enhance your experience and personalize the content and advertising you see.
Visit our Privacy Policy to learn more. By continuing to use the site, you agree to this use of cookies and data.
  • In United Kingdom
  • List of Countries
  • For 7 days
  • Water Temperature
  • Satellite Maps
  • Weather Map
  • Weather Widgets
  • user-avatar
    Login

    Hourly Weather Belém

    Today, 22 January, Tuesday

    Time Temperature Precipitation Wind Pressure Humidity
    00:00 +26°C° 0.8 mm 1 mps 759 mmHg 98%
    01:00 +26°C° 0.3 mm 1 mps 759 mmHg 99%
    02:00 +25°C° 0.3 mm 1 mps 758 mmHg 99%
    03:00 +25°C° 0.3 mm 1 mps 758 mmHg 99%
    04:00 +25°C° 0.5 mm 1 mps 758 mmHg 99%
    05:00 +25°C° 0.5 mm 1 mps 758 mmHg 99%
    06:00 +25°C° 0.5 mm 1 mps 758 mmHg 99%
    07:00 +26°C° 0.6 mm 1 mps 759 mmHg 97%
    08:00 +27°C° 0.6 mm 1 mps 759 mmHg 96%
    09:00 +28°C° 0.6 mm 1 mps 759 mmHg 94%
    10:00 +29°C° 1.7 mm 1 mps 759 mmHg 87%
    11:00 +30°C° 1.7 mm 1 mps 759 mmHg 81%
    12:00 +32°C° 1.7 mm 1 mps 759 mmHg 74%
    13:00 +31°C° 2.3 mm 1 mps 758 mmHg 80%
    14:00 +30°C° 2.3 mm 2 mps 757 mmHg 86%
    15:00 +30°C° 2.3 mm 2 mps 757 mmHg 92%
    16:00 +29°C° 1.8 mm 2 mps 757 mmHg 94%
    17:00 +28°C° 1.8 mm 2 mps 757 mmHg 95%
    18:00 +27°C° 1.8 mm 2 mps 757 mmHg 96%
    19:00 +27°C° 1.2 mm 2 mps 757 mmHg 96%
    20:00 +26°C° 1.2 mm 2 mps 758 mmHg 97%
    21:00 +26°C° 1.2 mm 2 mps 758 mmHg 97%
    22:00 +26°C° 1.9 mm 2 mps 759 mmHg 97%
    23:00 +26°C° 1.9 mm 1 mps 759 mmHg 97%

    Tomorrow, 23 January, Wednesday

    Time Temperature Precipitation Wind Pressure Humidity
    00:00 +26°C° 1.9 mm 1 mps 759 mmHg 97%
    01:00 +25°C° 1.3 mm 1 mps 759 mmHg 97%
    02:00 +25°C° 1.3 mm 1 mps 758 mmHg 97%
    03:00 +25°C° 1.3 mm 1 mps 757 mmHg 97%
    04:00 +25°C° 0.2 mm 1 mps 758 mmHg 97%
    05:00 +25°C° 0.2 mm 1 mps 758 mmHg 97%
    06:00 +25°C° 0.2 mm 1 mps 758 mmHg 97%
    07:00 +24°C° 0 mm 0 mps 758 mmHg 96%
    08:00 +25°C° 0 mm 0 mps 759 mmHg 94%
    09:00 +26°C° 0 mm 0 mps 759 mmHg 92%
    10:00 +27°C° 0 mm 0 mps 759 mmHg 82%
    11:00 +31°C° 0 mm 1 mps 759 mmHg 72%
    12:00 +33°C° 0 mm 1 mps 759 mmHg 62%
    13:00 +33°C° 0 mm 1 mps 758 mmHg 60%
    14:00 +34°C° 0 mm 1 mps 757 mmHg 58%
    15:00 +34°C° 0 mm 1 mps 756 mmHg 56%
    16:00 +32°C° 0.2 mm 2 mps 756 mmHg 67%
    17:00 +30°C° 0.2 mm 2 mps 756 mmHg 77%
    18:00 +29°C° 0.2 mm 2 mps 756 mmHg 88%
    19:00 +28°C° 0.4 mm 2 mps 757 mmHg 91%
    20:00 +27°C° 0.4 mm 2 mps 757 mmHg 94%
    21:00 +26°C° 0.4 mm 2 mps 758 mmHg 97%
    22:00 +26°C° 0.5 mm 2 mps 758 mmHg 97%
    23:00 +26°C° 0.5 mm 2 mps 758 mmHg 97%

    Day after tomorrow, 24 January, Thursday

    Time Temperature Precipitation Wind Pressure Humidity
    00:00 +26°C° 0.5 mm 2 mps 758 mmHg 98%
    01:00 +26°C° 0.9 mm 1 mps 758 mmHg 98%
    02:00 +26°C° 0.9 mm 1 mps 757 mmHg 98%
    03:00 +26°C° 0.9 mm 1 mps 757 mmHg 98%
    04:00 +23°C° 0.5 mm 0 mps 757 mmHg 98%
    05:00 +23°C° 0.5 mm 0 mps 757 mmHg 98%
    06:00 +23°C° 0.5 mm 0 mps 757 mmHg 98%
    07:00 +24°C° 0.4 mm 0 mps 758 mmHg 96%
    08:00 +25°C° 0.4 mm 0 mps 758 mmHg 94%
    09:00 +26°C° 0.4 mm 0 mps 759 mmHg 92%
    10:00 +28°C° 0.6 mm 0 mps 759 mmHg 83%
    11:00 +29°C° 0.6 mm 0 mps 758 mmHg 74%
    12:00 +33°C° 0.6 mm 1 mps 758 mmHg 64%
    13:00 +33°C° 0.2 mm 1 mps 757 mmHg 66%
    14:00 +32°C° 0.2 mm 1 mps 756 mmHg 68%
    15:00 +32°C° 0.2 mm 2 mps 755 mmHg 70%
    16:00 +31°C° 0.7 mm 2 mps 756 mmHg 78%
    17:00 +29°C° 0.7 mm 2 mps 756 mmHg 86%
    18:00 +28°C° 0.7 mm 2 mps 756 mmHg 94%
    19:00 +27°C° 0.3 mm 2 mps 757 mmHg 96%
    20:00 +26°C° 0.3 mm 2 mps 757 mmHg 97%
    21:00 +26°C° 0.3 mm 2 mps 758 mmHg 98%
    22:00 +26°C° 0.6 mm 2 mps 758 mmHg 98%
    23:00 +26°C° 0.6 mm 2 mps 758 mmHg 98%

    25 January, Friday

    Time Temperature Precipitation Wind Pressure Humidity
    00:00 +26°C° 0.6 mm 2 mps 759 mmHg 98%
    01:00 +25°C° 0.9 mm 2 mps 758 mmHg 98%
    02:00 +25°C° 0.9 mm 1 mps 758 mmHg 98%
    03:00 +25°C° 0.9 mm 1 mps 757 mmHg 97%
    04:00 +25°C° 0.6 mm 1 mps 757 mmHg 97%
    05:00 +25°C° 0.6 mm 1 mps 757 mmHg 97%
    06:00 +25°C° 0.6 mm 1 mps 757 mmHg 97%
    07:00 +26°C° 0.2 mm 1 mps 758 mmHg 95%
    08:00 +27°C° 0.2 mm 1 mps 758 mmHg 92%
    09:00 +28°C° 0.2 mm 1 mps 759 mmHg 89%
    10:00 +30°C° 0.2 mm 1 mps 759 mmHg 79%
    11:00 +31°C° 0.2 mm 1 mps 758 mmHg 69%
    12:00 +33°C° 0.2 mm 1 mps 758 mmHg 59%
    13:00 +32°C° 0.8 mm 2 mps 757 mmHg 69%
    14:00 +31°C° 0.8 mm 2 mps 756 mmHg 79%
    15:00 +29°C° 0.8 mm 2 mps 756 mmHg 90%
    16:00 +29°C° 0.3 mm 2 mps 756 mmHg 91%
    17:00 +28°C° 0.3 mm 2 mps 756 mmHg 92%
    18:00 +27°C° 0.3 mm 2 mps 756 mmHg 94%
    19:00 +27°C° 0 mm 2 mps 756 mmHg 95%
    20:00 +26°C° 0 mm 2 mps 757 mmHg 95%
    21:00 +26°C° 0 mm 2 mps 757 mmHg 96%
    22:00 +26°C° 0.3 mm 2 mps 758 mmHg 96%
    23:00 +26°C° 0.3 mm 2 mps 758 mmHg 97%

    26 January, Saturday

    Time Temperature Precipitation Wind Pressure Humidity
    00:00 +25°C° 0.3 mm 1 mps 758 mmHg 98%
    01:00 +25°C° 0.3 mm 1 mps 757 mmHg 98%
    02:00 +25°C° 0.3 mm 1 mps 757 mmHg 98%
    03:00 +25°C° 0.3 mm 1 mps 756 mmHg 98%
    04:00 +25°C° 0.3 mm 1 mps 757 mmHg 98%
    05:00 +25°C° 0.3 mm 1 mps 757 mmHg 98%
    06:00 +25°C° 0.3 mm 1 mps 757 mmHg 99%
    07:00 +26°C° 0.1 mm 1 mps 758 mmHg 96%
    08:00 +27°C° 0.1 mm 1 mps 758 mmHg 94%
    09:00 +28°C° 0.1 mm 1 mps 759 mmHg 91%
    10:00 +29°C° 0.2 mm 2 mps 759 mmHg 82%
    11:00 +31°C° 0.2 mm 2 mps 758 mmHg 73%
    12:00 +34°C° 0.2 mm 2 mps 758 mmHg 63%
    13:00 +32°C° 0.8 mm 2 mps 757 mmHg 69%
    14:00 +32°C° 0.8 mm 2 mps 756 mmHg 75%
    15:00 +31°C° 0.8 mm 2 mps 756 mmHg 80%
    16:00 +30°C° 1.4 mm 2 mps 756 mmHg 85%
    17:00 +29°C° 1.4 mm 2 mps 755 mmHg 90%
    18:00 +28°C° 1.4 mm 2 mps 755 mmHg 94%
    19:00 +27°C° 0.4 mm 2 mps 756 mmHg 95%
    20:00 +27°C° 0.4 mm 2 mps 757 mmHg 96%
    21:00 +26°C° 0.4 mm 2 mps 757 mmHg 97%
    22:00 +26°C° 0 mm 2 mps 757 mmHg 97%
    23:00 +26°C° 0 mm 2 mps 757 mmHg 97%

    27 January, Sunday

    Time Temperature Precipitation Wind Pressure Humidity
    00:00 +25°C° 0 mm 2 mps 758 mmHg 97%
    01:00 +25°C° 0 mm 2 mps 757 mmHg 97%
    02:00 +25°C° 0 mm 2 mps 757 mmHg 97%
    03:00 +25°C° 0 mm 2 mps 756 mmHg 98%
    04:00 +25°C° 0 mm 2 mps 756 mmHg 97%
    05:00 +25°C° 0 mm 1 mps 757 mmHg 97%
    06:00 +25°C° 0 mm 1 mps 757 mmHg 97%
    07:00 +26°C° 0 mm 2 mps 757 mmHg 93%
    08:00 +27°C° 0 mm 2 mps 758 mmHg 89%
    09:00 +28°C° 0 mm 2 mps 758 mmHg 85%
    10:00 +30°C° 0 mm 2 mps 758 mmHg 75%
    11:00 +32°C° 0 mm 2 mps 758 mmHg 65%
    12:00 +35°C° 0 mm 2 mps 758 mmHg 55%
    13:00 +35°C° 0.1 mm 2 mps 757 mmHg 54%
    14:00 +35°C° 0.1 mm 3 mps 756 mmHg 54%
    15:00 +35°C° 0.1 mm 3 mps 755 mmHg 54%
    16:00 +33°C° 0.7 mm 3 mps 755 mmHg 67%
    17:00 +30°C° 0.7 mm 3 mps 755 mmHg 81%
    18:00 +28°C° 0.7 mm 3 mps 755 mmHg 94%
    19:00 +27°C° 0.2 mm 3 mps 756 mmHg 95%
    20:00 +27°C° 0.2 mm 3 mps 757 mmHg 95%
    21:00 +26°C° 0.2 mm 3 mps 757 mmHg 96%
    22:00 +26°C° 0.1 mm 3 mps 757 mmHg 96%
    23:00 +26°C° 0.1 mm 3 mps 758 mmHg 96%
    Show more